VLG6437 LFRN-EIDW

Flight info

Callsign VLG6437
Flight time 1h 13m
Altitude 18000
Route LABUL A25 SKESO/N0400F240 N862 SKERY N864 BHD/N0447F360 DCT ILZIC DCT FONZU DCT UNFIT DCT NICXI/N0398F240 M17 VATRY VATRY3R
Aircraft A321/M-SDE3FGHIRWY/LB1

Departure

Time 2026-04-22 20:43
Airport Rennes-Saint-Jacques Airport (LFRN)

Arrival

Time 2026-04-22 21:56
Airport Dublin Airport (EIDW)
Time Latitude Longitude Altitude Speed Heading
2026-04-22 20:16 48.06907 -1.72643 136 ft 0 kts 225°
2026-04-22 20:37 48.06906 -1.72645 136 ft 1 kts 230°
2026-04-22 20:37 48.06912 -1.72685 135 ft 4 kts 316°
2026-04-22 20:37 48.06943 -1.72687 137 ft 4 kts
2026-04-22 20:37 48.06960 -1.72689 138 ft 4 kts 347°
2026-04-22 20:38 48.06981 -1.72749 139 ft 11 kts 281°
2026-04-22 20:38 48.07003 -1.72916 138 ft 19 kts 281°
2026-04-22 20:38 48.07028 -1.73120 135 ft 20 kts 280°
2026-04-22 20:38 48.07053 -1.73320 134 ft 20 kts 281°
2026-04-22 20:39 48.07091 -1.73498 129 ft 15 kts 312°
2026-04-22 20:39 48.07181 -1.73581 127 ft 15 kts 340°
2026-04-22 20:39 48.07251 -1.73688 125 ft 16 kts 281°
2026-04-22 20:39 48.07271 -1.73846 123 ft 15 kts 281°
2026-04-22 20:40 48.07290 -1.73995 121 ft 15 kts 280°
2026-04-22 20:40 48.07309 -1.74151 119 ft 13 kts 281°
2026-04-22 20:40 48.07324 -1.74267 123 ft 11 kts 279°
2026-04-22 20:40 48.07342 -1.74413 118 ft 18 kts 281°
2026-04-22 20:41 48.07341 -1.74563 113 ft 9 kts 259°
2026-04-22 20:41 48.07359 -1.74569 111 ft 2 kts 64°
2026-04-22 20:41 48.07357 -1.74532 114 ft 0 kts 100°
2026-04-22 20:42 48.07356 -1.74527 114 ft 3 kts 100°
2026-04-22 20:42 48.07314 -1.74199 123 ft 70 kts 100°
2026-04-22 20:42 48.07183 -1.73145 133 ft 133 kts 100°
2026-04-22 20:43 48.06987 -1.71617 491 ft 151 kts 100°
2026-04-22 20:43 48.06788 -1.70087 1241 ft 150 kts 99°
2026-04-22 20:43 48.06591 -1.68536 1688 ft 160 kts 99°
2026-04-22 20:43 48.06376 -1.66816 1981 ft 176 kts 99°
2026-04-22 20:44 48.06139 -1.64918 2148 ft 195 kts 99°
2026-04-22 20:44 48.05877 -1.62868 2323 ft 209 kts 99°
2026-04-22 20:44 48.05605 -1.60598 2513 ft 235 kts 95°
2026-04-22 20:44 48.05863 -1.58233 3303 ft 237 kts 66°
2026-04-22 20:45 48.06911 -1.56327 4204 ft 244 kts 43°
2026-04-22 20:45 48.08272 -1.54739 4934 ft 251 kts 44°
2026-04-22 20:45 48.09600 -1.52988 5639 ft 258 kts 45°
2026-04-22 20:45 48.10933 -1.51147 6314 ft 265 kts 46°
2026-04-22 20:46 48.13800 -1.47501 7687 ft 278 kts 30°
2026-04-22 20:46 48.15661 -1.46646 8366 ft 286 kts
2026-04-22 20:46 48.17633 -1.47100 9060 ft 292 kts 338°
2026-04-22 20:47 48.19414 -1.48597 9779 ft 294 kts 329°
2026-04-22 20:47 48.21166 -1.50209 10468 ft 299 kts 328°
2026-04-22 20:47 48.23012 -1.51910 10633 ft 322 kts 328°
2026-04-22 20:47 48.24988 -1.53730 10799 ft 343 kts 328°
2026-04-22 20:48 48.27050 -1.55622 11314 ft 350 kts 328°
2026-04-22 20:48 48.29139 -1.57540 11972 ft 353 kts 328°
2026-04-22 20:48 48.31241 -1.59470 12665 ft 355 kts 328°
2026-04-22 20:48 48.33356 -1.61412 13340 ft 358 kts 328°
2026-04-22 20:49 48.35489 -1.63371 13982 ft 361 kts 328°
2026-04-22 20:49 48.37637 -1.65343 14641 ft 364 kts 328°
2026-04-22 20:49 48.39804 -1.67335 15250 ft 366 kts 328°
2026-04-22 20:49 48.41989 -1.69351 15852 ft 369 kts 328°
2026-04-22 20:50 48.44189 -1.71384 16428 ft 372 kts 328°
2026-04-22 20:50 48.46400 -1.73429 17000 ft 375 kts 328°
2026-04-22 20:50 48.48630 -1.75496 17556 ft 377 kts 328°
2026-04-22 20:50 48.50875 -1.77576 18096 ft 380 kts 328°
2026-04-22 20:51 48.53142 -1.79672 18630 ft 383 kts 328°
2026-04-22 20:51 48.55419 -1.81779 19139 ft 385 kts 328°
2026-04-22 20:51 48.57708 -1.83901 19636 ft 387 kts 328°
2026-04-22 20:51 48.60007 -1.86041 20096 ft 390 kts 328°
2026-04-22 20:52 48.62328 -1.88203 20581 ft 393 kts 328°
2026-04-22 20:52 48.64660 -1.90378 21040 ft 395 kts 328°
2026-04-22 20:52 48.67005 -1.92565 21500 ft 397 kts 328°
2026-04-22 20:52 48.69364 -1.94768 21937 ft 400 kts 328°
2026-04-22 20:53 48.71735 -1.96985 22383 ft 402 kts 328°
2026-04-22 20:53 48.74115 -1.99215 22807 ft 404 kts 328°
2026-04-22 20:53 48.76483 -2.01435 23205 ft 406 kts 328°
2026-04-22 20:53 48.78898 -2.03696 23589 ft 409 kts 328°
2026-04-22 20:54 48.81327 -2.05974 23996 ft 411 kts 328°
2026-04-22 20:54 48.83782 -2.08279 24172 ft 420 kts 328°
2026-04-22 20:54 48.86299 -2.10649 24202 ft 431 kts 327°
2026-04-22 20:54 48.88882 -2.13088 24204 ft 443 kts 327°
2026-04-22 20:55 48.91531 -2.15588 24207 ft 453 kts 328°
2026-04-22 20:55 48.94238 -2.18142 24209 ft 463 kts 328°
2026-04-22 20:55 48.97011 -2.20763 24210 ft 472 kts 328°
2026-04-22 20:55 48.99822 -2.23426 24211 ft 479 kts 328°
2026-04-22 20:56 49.02675 -2.26132 24215 ft 485 kts 328°
2026-04-22 20:56 49.05550 -2.28864 24210 ft 489 kts 328°
2026-04-22 20:56 49.08436 -2.31611 24422 ft 484 kts 328°
2026-04-22 20:56 49.11225 -2.34267 24395 ft 463 kts 327°
2026-04-22 20:57 49.13900 -2.36824 24213 ft 445 kts 327°
2026-04-22 20:57 49.16470 -2.39281 24215 ft 425 kts 327°
2026-04-22 20:57 49.18944 -2.41648 24220 ft 415 kts 327°
2026-04-22 20:57 49.21381 -2.43981 24218 ft 412 kts 327°
2026-04-22 20:58 49.23798 -2.46298 24221 ft 412 kts 327°
2026-04-22 20:58 49.26227 -2.48629 24219 ft 412 kts 327°
2026-04-22 20:58 49.28658 -2.50963 24221 ft 412 kts 327°
2026-04-22 20:58 49.31093 -2.53305 24221 ft 412 kts 327°
2026-04-22 20:59 49.33521 -2.55647 24225 ft 413 kts 327°
2026-04-22 20:59 49.35952 -2.57995 24223 ft 413 kts 327°
2026-04-22 20:59 49.38390 -2.60350 24216 ft 413 kts 327°
2026-04-22 20:59 49.40818 -2.62691 24221 ft 412 kts 327°
2026-04-22 21:00 49.43251 -2.65037 24221 ft 413 kts 327°
2026-04-22 21:00 49.45676 -2.67384 24222 ft 413 kts 327°
2026-04-22 21:00 49.48104 -2.69740 24218 ft 412 kts 327°
2026-04-22 21:00 49.50530 -2.72097 24222 ft 413 kts 327°
2026-04-22 21:01 49.52965 -2.74464 24223 ft 413 kts 328°
2026-04-22 21:01 49.55391 -2.76827 24218 ft 414 kts 328°
2026-04-22 21:01 49.57821 -2.79200 24220 ft 414 kts 328°
2026-04-22 21:01 49.60222 -2.81548 24220 ft 414 kts 328°
2026-04-22 21:02 49.62656 -2.83927 24220 ft 414 kts 328°
2026-04-22 21:02 49.65092 -2.86306 24224 ft 414 kts 328°
2026-04-22 21:02 49.67536 -2.88698 24221 ft 415 kts 328°
2026-04-22 21:02 49.69970 -2.91085 24235 ft 415 kts 328°
2026-04-22 21:03 49.72404 -2.93473 24232 ft 415 kts 328°
2026-04-22 21:03 49.74841 -2.95868 24235 ft 415 kts 328°
2026-04-22 21:03 49.77278 -2.98267 24232 ft 415 kts 328°
2026-04-22 21:03 49.79716 -3.00668 24233 ft 415 kts 328°
2026-04-22 21:04 49.82154 -3.03060 24240 ft 415 kts 329°
2026-04-22 21:04 49.84709 -3.05159 24241 ft 415 kts 333°
2026-04-22 21:04 49.87292 -3.07201 24398 ft 418 kts 333°
2026-04-22 21:04 49.89886 -3.09259 24807 ft 420 kts 333°
2026-04-22 21:05 49.92496 -3.11332 25210 ft 422 kts 333°
2026-04-22 21:05 49.95117 -3.13416 25592 ft 424 kts 333°
2026-04-22 21:05 49.97748 -3.15512 25968 ft 426 kts 332°
2026-04-22 21:05 50.00390 -3.17618 26318 ft 428 kts 332°
2026-04-22 21:06 50.03013 -3.19709 26656 ft 430 kts 332°
2026-04-22 21:06 50.05709 -3.21859 27021 ft 431 kts 332°
2026-04-22 21:06 50.07481 -3.23274 27247 ft 432 kts 332°
2026-04-22 21:06 50.10162 -3.25419 27570 ft 434 kts 332°
2026-04-22 21:07 50.13726 -3.28275 28000 ft 437 kts 332°
2026-04-22 21:07 50.16439 -3.30447 28321 ft 439 kts 332°
2026-04-22 21:07 50.19158 -3.32626 28643 ft 440 kts 332°
2026-04-22 21:07 50.20998 -3.34103 28828 ft 441 kts 332°
2026-04-22 21:08 50.23736 -3.36309 29124 ft 443 kts 332°
2026-04-22 21:08 50.26440 -3.38494 29410 ft 444 kts 332°
2026-04-22 21:08 50.29189 -3.40719 29700 ft 446 kts 332°
2026-04-22 21:08 50.31950 -3.42952 29972 ft 448 kts 331°
2026-04-22 21:09 50.34720 -3.45195 30252 ft 449 kts 331°
2026-04-22 21:09 50.37496 -3.47446 30573 ft 449 kts 331°
2026-04-22 21:09 50.40268 -3.49689 30961 ft 447 kts 331°
2026-04-22 21:09 50.43031 -3.51910 31340 ft 446 kts 331°
2026-04-22 21:10 50.45797 -3.54114 31724 ft 444 kts 332°
2026-04-22 21:10 50.48552 -3.56305 32102 ft 443 kts 331°
2026-04-22 21:10 50.51297 -3.58490 32505 ft 441 kts 331°
2026-04-22 21:10 50.54030 -3.60670 32883 ft 440 kts 331°
2026-04-22 21:11 50.56750 -3.62850 33259 ft 438 kts 331°
2026-04-22 21:11 50.59411 -3.65151 33626 ft 434 kts 325°
2026-04-22 21:11 50.61904 -3.67832 33971 ft 433 kts 323°
2026-04-22 21:11 50.64348 -3.70482 34237 ft 432 kts 323°
2026-04-22 21:12 50.69299 -3.75842 34293 ft 431 kts 324°
2026-04-22 21:12 50.74244 -3.81208 34293 ft 431 kts 323°
2026-04-22 21:13 50.79180 -3.86590 34291 ft 431 kts 323°
2026-04-22 21:13 50.84347 -3.91412 34293 ft 433 kts 334°
2026-04-22 21:14 50.89880 -3.95208 34293 ft 433 kts 334°
2026-04-22 21:14 50.95384 -3.98971 34291 ft 433 kts 334°
2026-04-22 21:15 51.00916 -4.02778 34291 ft 435 kts 334°
2026-04-22 21:15 51.06488 -4.06627 34294 ft 437 kts 334°
2026-04-22 21:16 51.12106 -4.10521 34292 ft 438 kts 334°
2026-04-22 21:16 51.17649 -4.14377 34292 ft 438 kts 334°
2026-04-22 21:17 51.23228 -4.18261 34293 ft 437 kts 334°
2026-04-22 21:17 51.28808 -4.22161 34295 ft 437 kts 334°
2026-04-22 21:18 51.34376 -4.26067 34281 ft 437 kts 334°
2026-04-22 21:18 51.39941 -4.29989 34283 ft 437 kts 334°
2026-04-22 21:19 51.45069 -4.35088 34286 ft 434 kts 321°
2026-04-22 21:19 51.49853 -4.41008 34281 ft 434 kts 321°
2026-04-22 21:20 51.54647 -4.46918 34275 ft 435 kts 321°
2026-04-22 21:20 51.59442 -4.52850 34275 ft 435 kts 321°
2026-04-22 21:21 51.64231 -4.58806 34274 ft 435 kts 321°
2026-04-22 21:21 51.69011 -4.64767 34276 ft 435 kts 321°
2026-04-22 21:22 51.73766 -4.70723 34275 ft 435 kts 320°
2026-04-22 21:22 51.78552 -4.76736 34275 ft 436 kts 320°
2026-04-22 21:23 51.83340 -4.82765 34276 ft 436 kts 320°
2026-04-22 21:23 51.88127 -4.88803 34276 ft 437 kts 320°
2026-04-22 21:24 51.92922 -4.94858 34268 ft 437 kts 320°
2026-04-22 21:24 51.95315 -4.97884 34026 ft 436 kts 320°
2026-04-22 21:24 51.97697 -5.00906 33785 ft 435 kts 320°
2026-04-22 21:25 52.00085 -5.03928 33539 ft 436 kts 322°
2026-04-22 21:25 52.02652 -5.06584 33285 ft 439 kts 330°
2026-04-22 21:25 52.05397 -5.08820 33032 ft 442 kts 331°
2026-04-22 21:25 52.08151 -5.11054 32788 ft 443 kts 331°
2026-04-22 21:26 52.10908 -5.13298 32540 ft 443 kts 331°
2026-04-22 21:26 52.13662 -5.15540 32290 ft 442 kts 331°
2026-04-22 21:26 52.16412 -5.17783 32040 ft 441 kts 331°
2026-04-22 21:26 52.19148 -5.20020 31666 ft 438 kts 331°
2026-04-22 21:27 52.21871 -5.22251 31085 ft 436 kts 331°
2026-04-22 21:27 52.24571 -5.24467 30536 ft 434 kts 331°
2026-04-22 21:27 52.27259 -5.26674 29972 ft 431 kts 331°
2026-04-22 21:27 52.29932 -5.28872 29421 ft 429 kts 331°
2026-04-22 21:28 52.32593 -5.31064 28874 ft 426 kts 332°
2026-04-22 21:28 52.35228 -5.33234 28331 ft 423 kts 332°
2026-04-22 21:28 52.37849 -5.35393 27792 ft 420 kts 332°
2026-04-22 21:28 52.40423 -5.37515 27264 ft 418 kts 332°
2026-04-22 21:29 52.43036 -5.39676 26730 ft 414 kts 332°
2026-04-22 21:29 52.45597 -5.41798 26219 ft 411 kts 332°
2026-04-22 21:29 52.48134 -5.43907 25716 ft 407 kts 332°
2026-04-22 21:29 52.50649 -5.45999 25221 ft 402 kts 332°
2026-04-22 21:30 52.53134 -5.48065 24746 ft 398 kts 332°
2026-04-22 21:30 52.55585 -5.49986 24276 ft 394 kts 338°
2026-04-22 21:30 52.58173 -5.51394 23786 ft 390 kts 342°
2026-04-22 21:30 52.60755 -5.52710 23307 ft 387 kts 342°
2026-04-22 21:31 52.63320 -5.54021 22824 ft 384 kts 342°
2026-04-22 21:31 52.65863 -5.55325 22353 ft 382 kts 341°
2026-04-22 21:31 52.68388 -5.56627 21880 ft 379 kts 342°
2026-04-22 21:31 52.70901 -5.57924 21410 ft 378 kts 341°
2026-04-22 21:32 52.73401 -5.59212 20941 ft 376 kts 341°
2026-04-22 21:32 52.75892 -5.60498 20469 ft 374 kts 342°
2026-04-22 21:32 52.78362 -5.61778 20000 ft 372 kts 342°
2026-04-22 21:32 52.80825 -5.63058 19534 ft 370 kts 341°
2026-04-22 21:33 52.83277 -5.64331 19069 ft 369 kts 341°
2026-04-22 21:33 52.85721 -5.65601 18611 ft 367 kts 342°
2026-04-22 21:33 52.88150 -5.66861 18151 ft 366 kts 342°
2026-04-22 21:33 52.90576 -5.68121 17690 ft 363 kts 342°
2026-04-22 21:34 52.92986 -5.69378 17237 ft 362 kts 342°
2026-04-22 21:34 52.95383 -5.70630 16785 ft 361 kts 342°
2026-04-22 21:34 52.97756 -5.71865 16335 ft 360 kts 342°
2026-04-22 21:34 53.00144 -5.73107 15886 ft 359 kts 342°
2026-04-22 21:35 53.02517 -5.74344 15443 ft 358 kts 342°
2026-04-22 21:35 53.04890 -5.75588 14996 ft 356 kts 342°
2026-04-22 21:35 53.07247 -5.76826 14549 ft 356 kts 342°
2026-04-22 21:35 53.09602 -5.78070 14102 ft 354 kts 341°
2026-04-22 21:36 53.11803 -5.79853 13664 ft 352 kts 326°
2026-04-22 21:36 53.13634 -5.82521 13361 ft 350 kts 310°
2026-04-22 21:36 53.15017 -5.85817 13076 ft 344 kts 296°
2026-04-22 21:36 53.15997 -5.89425 12668 ft 341 kts 291°
2026-04-22 21:37 53.16927 -5.93046 12236 ft 339 kts 291°
2026-04-22 21:37 53.17865 -5.96646 11815 ft 338 kts 291°
2026-04-22 21:37 53.18805 -6.00225 11382 ft 337 kts 291°
2026-04-22 21:37 53.19744 -6.03802 10949 ft 335 kts 291°
2026-04-22 21:38 53.20671 -6.07348 10636 ft 330 kts 291°
2026-04-22 21:38 53.21569 -6.10797 10515 ft 319 kts 291°
2026-04-22 21:38 53.22435 -6.14142 10287 ft 311 kts 291°
2026-04-22 21:38 53.23284 -6.17430 10172 ft 307 kts 291°
2026-04-22 21:39 53.24133 -6.20734 9687 ft 311 kts 291°
2026-04-22 21:39 53.24978 -6.24026 9378 ft 307 kts 291°
2026-04-22 21:39 53.25816 -6.27303 8971 ft 306 kts 291°
2026-04-22 21:39 53.26635 -6.30521 8619 ft 304 kts 291°
2026-04-22 21:40 53.27459 -6.33750 8330 ft 298 kts 290°
2026-04-22 21:40 53.28229 -6.36886 8196 ft 285 kts 284°
2026-04-22 21:40 53.28413 -6.40051 8072 ft 266 kts 257°
2026-04-22 21:40 53.27854 -6.42875 7821 ft 251 kts 233°
2026-04-22 21:41 53.26737 -6.45004 7481 ft 241 kts 213°
2026-04-22 21:41 53.25439 -6.46705 7346 ft 232 kts 213°
2026-04-22 21:41 53.24163 -6.48386 7332 ft 235 kts 213°
2026-04-22 21:41 53.22879 -6.50082 7325 ft 235 kts 214°
2026-04-22 21:42 53.21768 -6.52120 7328 ft 242 kts 232°
2026-04-22 21:42 53.21048 -6.54682 7334 ft 246 kts 245°
2026-04-22 21:42 53.20453 -6.57361 7333 ft 246 kts 244°
2026-04-22 21:42 53.19853 -6.60033 7332 ft 246 kts 244°
2026-04-22 21:43 53.19249 -6.62712 7335 ft 247 kts 244°
2026-04-22 21:43 53.18681 -6.65420 7322 ft 249 kts 252°
2026-04-22 21:43 53.18528 -6.68319 7329 ft 256 kts 269°
2026-04-22 21:43 53.18810 -6.71263 7335 ft 259 kts 276°
2026-04-22 21:44 53.19137 -6.74219 7332 ft 259 kts 276°
2026-04-22 21:44 53.19459 -6.77174 7331 ft 259 kts 276°
2026-04-22 21:44 53.19782 -6.80140 7330 ft 259 kts 277°
2026-04-22 21:44 53.20377 -6.82994 7328 ft 263 kts 295°
2026-04-22 21:45 53.21448 -6.85485 7333 ft 267 kts 310°
2026-04-22 21:45 53.22665 -6.87772 7332 ft 266 kts 310°
2026-04-22 21:45 53.24095 -6.89770 7319 ft 266 kts 333°
2026-04-22 21:45 53.25842 -6.90567 7325 ft 264 kts
2026-04-22 21:46 53.27621 -6.90079 7224 ft 258 kts 26°
2026-04-22 21:46 53.29059 -6.88459 6966 ft 245 kts 52°
2026-04-22 21:46 53.30036 -6.86180 6768 ft 241 kts 62°
2026-04-22 21:46 53.30950 -6.83838 6576 ft 240 kts 62°
2026-04-22 21:47 53.31865 -6.81507 6385 ft 239 kts 62°
2026-04-22 21:47 53.32775 -6.79189 6184 ft 238 kts 62°
2026-04-22 21:47 53.33683 -6.76868 5985 ft 238 kts 62°
2026-04-22 21:47 53.34593 -6.74548 5790 ft 238 kts 62°
2026-04-22 21:48 53.35506 -6.72250 5448 ft 238 kts 59°
2026-04-22 21:48 53.36731 -6.70348 5109 ft 244 kts 37°
2026-04-22 21:48 53.38325 -6.69323 4881 ft 251 kts 14°
2026-04-22 21:48 53.40063 -6.69025 4676 ft 251 kts
2026-04-22 21:49 53.41789 -6.68763 4476 ft 245 kts 10°
2026-04-22 21:49 53.43451 -6.68487 4293 ft 233 kts 15°
2026-04-22 21:49 53.44798 -6.67466 4111 ft 202 kts 48°
2026-04-22 21:49 53.45532 -6.65686 3949 ft 174 kts 78°
2026-04-22 21:50 53.45684 -6.64408 3860 ft 159 kts 93°
2026-04-22 21:50 53.45547 -6.62119 3714 ft 142 kts 101°
2026-04-22 21:50 53.45450 -6.60489 3609 ft 139 kts 101°
2026-04-22 21:50 53.45360 -6.58876 3501 ft 139 kts 101°
2026-04-22 21:51 53.45273 -6.57268 3387 ft 138 kts 100°
2026-04-22 21:51 53.45188 -6.55681 3333 ft 138 kts 100°
2026-04-22 21:51 53.45104 -6.54078 3211 ft 137 kts 100°
2026-04-22 21:52 53.44936 -6.50893 2898 ft 137 kts 100°
2026-04-22 21:52 53.44852 -6.49286 2715 ft 138 kts 99°
2026-04-22 21:52 53.44768 -6.47691 2521 ft 137 kts 99°
2026-04-22 21:52 53.44684 -6.46101 2354 ft 136 kts 99°
2026-04-22 21:53 53.44600 -6.44516 2171 ft 136 kts 98°
2026-04-22 21:53 53.44516 -6.42950 1994 ft 135 kts 97°
2026-04-22 21:53 53.44433 -6.41384 1800 ft 134 kts 97°
2026-04-22 21:53 53.44351 -6.39829 1623 ft 134 kts 96°
2026-04-22 21:54 53.44266 -6.38258 1428 ft 135 kts 95°
2026-04-22 21:54 53.44182 -6.36702 1260 ft 134 kts 96°
2026-04-22 21:54 53.44098 -6.35149 1099 ft 133 kts 96°
2026-04-22 21:54 53.44018 -6.33602 925 ft 133 kts 95°
2026-04-22 21:55 53.43933 -6.32066 728 ft 132 kts 96°
2026-04-22 21:55 53.43847 -6.30530 548 ft 132 kts 96°
2026-04-22 21:55 53.43771 -6.28995 375 ft 132 kts 95°
2026-04-22 21:55 53.43683 -6.27458 242 ft 131 kts 96°
2026-04-22 21:56 53.43610 -6.26121 227 ft 96 kts 95°
2026-04-22 21:56 53.43568 -6.25358 225 ft 36 kts 95°
2026-04-22 21:56 53.43554 -6.25075 225 ft 19 kts 95°
2026-04-22 21:56 53.43538 -6.24795 225 ft 30 kts 95°
2026-04-22 21:57 53.43515 -6.24575 226 ft 15 kts 129°
2026-04-22 21:57 53.43456 -6.24551 224 ft 8 kts 185°
2026-04-22 21:57 53.43422 -6.24557 225 ft 7 kts 186°
2026-04-22 21:57 53.43358 -6.24527 227 ft 12 kts 133°
2026-04-22 21:58 53.43329 -6.24418 225 ft 10 kts 143°
2026-04-22 21:58 53.43263 -6.24408 225 ft 9 kts 185°
2026-04-22 21:58 53.43205 -6.24433 225 ft 8 kts 218°
2026-04-22 21:58 53.43194 -6.24560 225 ft 13 kts 274°
2026-04-22 21:59 53.43200 -6.24631 225 ft 8 kts 284°
2026-04-22 21:59 53.43242 -6.24674 225 ft 7 kts 358°
2026-04-22 21:59 53.43275 -6.24669 225 ft 0 kts